#timestamp,LO_Frequency,Hit,StdDev 
1571738415.7,286046992.3,N
1571738435.5,286046991.5,N
1571738455.4,286046989.7,N
1571738475.2,286046989.0,N
1571738495.1,286046988.9,N
1571738496.0,286046988.9,N
1571738515.8,286046989.8,N
1571738535.6,286046989.6,N
1571738555.5,286046987.5,N
1571738575.3,286046988.5,N
1571738595.1,286046990.8,N
1571738615.9,286046993.1,N
1571738635.7,286046992.0,N
1571738655.6,286046989.1,N
1571738675.4,286046987.9,N
1571738695.2,286046988.3,N
1571738715.1,286046987.6,N
1571738716.0,286046987.6,N
1571738735.8,286046983.7,N
1571738755.7,286046986.1,N
1571738775.5,286046985.3,N
1571738795.3,286046985.3,N
1571738815.2,286046986.3,N
1571738835.9,286046986.0,N
1571738855.7,286046983.8,Y
1571738875.6,286046995.8,P
1571738895.4,286046998.0,N
1571738915.3,286046995.2,N
1571738935.1,286046996.8,N
1571738936.0,286046996.8,N
1571738955.8,286046997.7,N
1571738975.7,286046995.2,N
1571738995.5,286046995.2,N
1571739015.3,286046997.4,N
1571739035.2,286046997.9,N
1571739055.0,286046995.9,N
1571739055.9,286046995.9,N
1571739075.8,286046993.5,Y
1571739095.6,286046998.7,P
1571739115.4,286047000.9,N
1571739135.3,286047000.8,N
1571739155.1,286046998.2,N
1571739175.9,286047000.0,N
1571739195.7,286046999.6,N
1571739215.5,286046997.0,N
1571739235.4,286046997.4,N
1571739255.2,286046997.8,N
1571739275.0,286046995.5,N
1571739275.9,286046995.5,N
1571739295.8,286046993.6,Y
1571739315.6,286046996.8,P
1571739335.5,286046999.3,N
1571739355.3,286046998.5,N
1571739375.1,286047001.1,N
1571739395.9,286047002.4,N
1571739415.7,286047000.4,N
1571739435.6,286047002.2,N
1571739455.4,286047002.2,N
1571739475.2,286046998.5,N
1571739495.1,286046998.4,N
1571739496.0,286046998.4,N
1571739515.8,286046996.9,N
1571739535.6,286046993.7,Y
1571739555.5,286046995.6,P
1571739575.3,286046997.6,N
1571739595.2,286046999.5,N
1571739615.9,286047000.0,N
1571739635.7,286047000.5,N
1571739655.6,286047000.9,N
1571739675.4,286046999.1,N
1571739695.2,286046996.8,N
1571739715.1,286046995.0,N
1571739716.0,286046995.0,N
1571739735.8,286046995.4,N
1571739755.7,286046995.3,N
1571739775.5,286046997.2,N
1571739795.3,286046998.9,N
1571739815.2,286046999.2,N
1571739835.0,286047001.1,N
1571739835.9,286047001.1,N
1571739855.8,286046999.4,N
1571739875.6,286046997.1,N
1571739895.4,286046996.6,N
1571739915.3,286046999.2,N
1571739935.1,286046997.2,N
1571739955.8,286046997.6,N
1571739975.7,286046997.3,N
1571739995.5,286046996.7,N
1571740015.4,286046996.5,N
1571740035.2,286046997.2,N
1571740055.0,286046997.9,N
1571740055.9,286046997.9,N
1571740075.8,286046996.4,N
1571740095.6,286046993.7,Y
1571740115.5,286046997.2,P
1571740135.3,286046996.5,P
1571740155.1,286046996.8,P
1571740175.9,286046996.6,Y
1571740195.7,286046999.9,P
1571740215.5,286047002.8,N
1571740235.4,286047002.0,N
1571740255.2,286047004.3,N
1571740275.1,286047000.1,N
1571740276.0,286047000.1,N
1571740295.8,286047000.0,N
1571740315.6,286047002.2,N
1571740335.5,286046999.9,N
1571740355.3,286047000.0,N
1571740375.1,286047000.6,N
1571740395.9,286046996.5,N
1571740415.7,286046998.4,N
1571740435.6,286046999.9,N
1571740455.4,286047000.5,N
1571740475.2,286047000.7,N
1571740495.1,286047000.3,N
1571740496.0,286047000.3,N
1571740515.8,286047000.4,N
1571740535.6,286047000.8,N
1571740555.5,286046998.6,N
1571740575.3,286047000.8,N
1571740595.2,286047000.8,N
1571740615.9,286046998.6,N
1571740635.7,286046999.7,N
1571740655.6,286047000.0,N
1571740675.4,286046998.4,N
1571740695.2,286047001.2,N
1571740715.1,286046998.3,N
1571740716.0,286046998.3,N
1571740735.8,286047000.3,N
1571740755.7,286047002.0,N
1571740775.5,286047002.3,N
1571740795.3,286047002.3,N
1571740815.2,286047001.8,N
1571740835.0,286047001.5,N
1571740835.9,286047001.5,N
1571740855.8,286047004.3,Y
1571740875.6,286047001.4,P
1571740895.4,286047004.4,P
1571740915.3,286047000.6,N
1571740935.1,286046999.8,N
1571740955.9,286047002.6,N
1571740975.7,286047000.1,N
1571740995.5,286047001.9,N
1571741015.4,286046999.9,N
1571741035.2,286047002.6,N
1571741055.0,286047002.4,N
1571741055.9,286047002.4,N
1571741075.8,286047001.6,N
1571741095.6,286047002.3,N
1571741115.5,286047002.5,N
1571741135.3,286047003.7,N
1571741155.1,286047011.9,Y
1571741175.9,286046999.5,P
1571741195.7,286046995.3,P
1571741215.5,286046993.7,N
1571741235.4,286046994.7,N
1571741255.2,286046995.7,N
1571741275.1,286046993.3,N
1571741276.0,286046993.3,N
1571741295.8,286046994.8,N
1571741315.6,286046995.2,N
1571741335.5,286046998.9,N
1571741355.3,286046998.5,N
1571741375.1,286046999.0,N
1571741395.9,286046999.5,N
1571741415.7,286046994.2,N
1571741435.6,286046988.9,Y
1571741455.4,286046992.7,P
1571741475.2,286046991.2,P
1571741495.1,286046994.4,N
1571741496.0,286046994.4,N
1571741515.8,286046996.3,N
1571741535.7,286046997.7,N
1571741555.5,286046998.7,N
1571741575.3,286046997.3,N
1571741595.2,286046996.6,N
1571741615.0,286047000.9,N
1571741615.9,286047000.9,N
1571741635.7,286047000.5,N
1571741655.6,286047001.5,N
1571741675.4,286047001.6,N
1571741695.3,286047004.2,N
1571741715.1,286047005.3,N
1571741716.0,286047005.3,N
1571741735.8,286047006.6,N
1571741755.7,286047006.7,N
1571741775.5,286047008.5,N
1571741795.4,286047010.8,N
1571741815.2,286047008.0,N
1571741835.0,286047007.4,N
1571741835.9,286047007.4,N
1571741855.8,286047005.4,N
1571741875.6,286047001.5,N
1571741895.4,286046996.9,N
1571741915.3,286046996.7,N
1571741935.1,286046993.3,N
1571741955.9,286046996.4,N
1571741975.7,286046995.6,N
1571741995.5,286046992.4,N
